DL5MAC-13 Weather Reports


time (UTC)temp
C
wind
direction
speed
KPH
gust
KPH
rain 1hr
cm
rain 24hr
cm
rain mn
cm
humidity
%
barometer
mb
20260506103035 21 49 0.0 1.6 0.00 0.30 0.00 50 1009.1
20260506102101 20 28 0.0 1.6 0.00 0.30 0.00 52 1009.4
20260506101022 20 0.0 0.0 0.00 0.30 0.00 53 1009.4
20260506100037 19 0.0 0.0 0.00 0.30 0.00 53 1009.3
20260506095110 20 38 0.0 1.6 0.00 0.30 0.00 53 1009.3
20260506094029 20 41 0.0 1.6 0.00 0.30 0.00 54 1009.4
20260506093053 18 32 0.0 1.6 0.00 0.30 0.00 59 1009.3
20260506092118 17 0.0 0.0 0.00 0.30 0.00 60 1009.4
20260506091038 18 73 0.0 1.6 0.00 0.30 0.00 61 1009.4
20260506085022 18 0.0 0.0 0.00 0.30 0.00 58 1009.5
20260506084044 18 0.0 0.0 0.00 0.30 0.00 57 1009.7
20260506083035 19 0.0 0.0 0.00 0.30 0.00 58 1009.8
20260506082102 20 0.0 0.0 0.00 0.30 0.00 55 1009.6
20260506081022 20 0.0 0.0 0.00 0.30 0.00 57 1009.6
20260506073054 17 0.0 0.0 0.00 0.30 0.00 65 1010.0
20260506072036 17 0.0 0.0 0.00 0.30 0.00 64 1010.1
20260506071110 17 0.0 0.0 0.00 0.30 0.00 64 1010.2
20260506062103 13 0.0 0.0 0.00 0.30 0.00 78 1010.3
20260506061022 12 32 0.0 1.6 0.00 0.30 0.00 80 1010.3
20260506051038 10 0.0 0.0 0.00 0.30 0.00 93 1010.4
20260506045022 9 0.0 0.0 0.00 0.30 0.00 93 1010.4
20260506044046 9 0.0 0.0 0.00 0.30 0.00 93 1010.6
20260506043110 9 0.0 0.0 0.00 0.30 0.00 93 1010.7
20260506042029 9 0.0 0.0 0.00 0.30 0.00 93 1010.6
20260506041054 9 0.0 0.0 0.00 0.30 0.00 93 1010.7
20260506040118 9 0.0 0.0 0.00 0.30 0.00 93 1010.8
20260506035039 9 0.0 0.0 0.00 0.30 0.00 92 1010.6
20260506034118 9 0.0 0.0 0.00 0.30 0.00 92 1010.7
20260506033034 9 0.0 0.0 0.00 0.30 0.00 92 1010.8
20260506032102 9 0.0 0.0 0.00 0.30 0.00 92 1011.1
20260506031022 9 0.0 0.0 0.00 0.30 0.00 92 1011.1
20260506030047 9 0.0 0.0 0.00 0.30 0.00 92 1011.0
20260506025022 9 0.0 0.0 0.00 0.30 0.00 92 1011.0
20260506024046 9 0.0 0.0 0.00 0.30 0.00 92 1011.0
20260506023111 10 0.0 0.0 0.00 0.30 0.00 92 1010.8
20260506022030 10 0.0 0.0 0.00 0.30 0.00 92 1010.9
20260506021055 10 0.0 0.0 0.00 0.30 0.00 91 1011.0
20260506020118 10 0.0 0.0 0.00 0.30 0.00 91 1011.0
20260506015040 10 0.0 0.0 0.00 0.30 0.00 91 1011.0
20260506014103 10 0.0 0.0 0.00 0.30 0.00 91 1011.1
20260506013023 10 0.0 0.0 0.00 0.30 0.00 91 1011.3
20260506012043 10 0.0 0.0 0.00 0.30 0.00 90 1011.3
20260506011022 10 0.0 0.0 0.00 0.30 0.00 89 1011.2
20260506010046 10 0.0 0.0 0.00 0.30 0.00 87 1011.2
20260506005111 10 0.0 0.0 0.00 0.30 0.00 86 1011.3
20260506004031 11 0.0 0.0 0.00 0.30 0.00 84 1011.2
20260506003055 11 0.0 0.0 0.00 0.30 0.00 83 1011.3
20260506002030 12 0.0 0.0 0.00 0.30 0.00 83 1011.4
20260506001055 12 0.0 0.0 0.00 0.30 0.00 82 1011.3
20260506000118 12 0.0 0.0 0.00 0.30 0.00 85 1011.3
20260505235038 12 0.0 0.0 0.00 0.30 0.00 87 1011.6
20260505234102 12 0.0 0.0 0.00 0.30 0.00 88 1011.6
20260505233022 12 0.0 0.0 0.00 0.30 0.00 89 1011.6
20260505232043 12 0.0 0.0 0.00 0.30 0.00 89 1011.7
20260505231024 12 0.0 0.0 0.00 0.30 0.00 88 1011.9
20260505230041 12 0.0 0.0 0.00 0.30 0.00 88 1011.7
20260505225110 12 0.0 0.0 0.00 0.30 0.00 88 1011.8
20260505224035 12 0.0 0.0 0.00 0.30 0.00 88 1011.7
20260505223110 12 0.0 0.0 0.00 0.30 0.00 88 1011.6
20260505222031 12 0.0 0.0 0.00 0.30 0.00 87 1011.5
20260505221054 12 0.0 0.0 0.00 0.30 0.00 86 1011.5
20260505220119 12 0.0 0.0 0.00 0.30 0.00 86 1011.5
20260505215034 12 0.0 0.0 0.00 0.30 0.30 86 1011.6
20260505214103 12 0.0 0.0 0.00 0.30 0.30 86 1011.6
20260505213022 12 0.0 0.0 0.00 0.30 0.30 86 1011.6
20260505212044 12 0.0 0.0 0.00 0.30 0.30 86 1011.6
20260505211111 12 0.0 0.0 0.00 0.30 0.30 87 1011.4
20260505210030 12 0.0 0.0 0.00 0.30 0.30 87 1011.4
20260505205054 12 0.0 0.0 0.00 0.30 0.30 87 1011.3
20260505204118 12 0.0 0.0 0.00 0.30 0.30 88 1011.1
20260505203039 12 0.0 0.0 0.00 0.30 0.30 88 1010.9
20260505202103 12 0.0 0.0 0.00 0.30 0.30 89 1010.7
20260505201033 12 0.0 0.0 0.00 0.30 0.30 90 1010.8
20260505200103 12 0.0 0.0 0.00 0.30 0.30 90 1010.5
20260505195034 12 0.0 0.0 0.00 0.30 0.30 90 1010.0
20260505194102 12 0.0 0.0 0.00 0.30 0.30 89 1009.5
20260505193022 12 0.0 0.0 0.00 0.30 0.30 89 1009.5
20260505192043 12 0.0 0.0 0.00 0.30 0.30 88 1009.5
20260505191111 12 0.0 0.0 0.00 0.30 0.30 88 1009.6
20260505190036 12 0.0 0.0 0.00 0.30 0.30 88 1009.5
20260505185111 12 0.0 0.0 0.00 0.30 0.30 88 1009.6
20260505184036 12 0.0 0.0 0.00 0.30 0.30 88 1009.4
20260505183111 13 0.0 0.0 0.00 0.30 0.30 89 1009.3
20260505182031 13 0.0 0.0 0.00 0.30 0.30 90 1009.1
20260505181055 14 0.0 0.0 0.00 0.30 0.30 90 1008.8
20260505180031 15 0.0 0.0 0.00 0.30 0.30 90 1008.9
20260505175054 15 0.0 0.0 0.00 0.30 0.30 90 1008.9
20260505174119 14 0.0 0.0 0.08 0.30 0.30 90 1008.8
20260505173034 14 0.0 0.0 0.20 0.30 0.30 89 1009.0
20260505172102 14 0.0 0.0 0.25 0.30 0.30 89 1008.9
20260505171033 14 0.0 0.0 0.30 0.30 0.30 89 1009.0
20260505170104 14 0.0 0.0 0.30 0.30 0.30 88 1009.1
20260505165034 14 0.0 0.0 0.30 0.30 0.30 86 1009.4
20260505164104 15 0.0 0.0 0.23 0.23 0.23 85 1009.3
20260505163022 15 0.0 0.0 0.10 0.10 0.10 81 1009.7
20260505162041 16 34 0.0 1.6 0.05 0.05 0.05 75 1009.7
20260505161110 17 0.0 0.0 0.00 0.00 0.00 68 1009.5
20260505153055 21 0.0 0.0 0.00 0.00 0.00 52 1008.2
20260505152032 22 0.0 0.0 0.00 0.00 0.00 48 1007.9
20260505151055 22 0.0 0.0 0.00 0.00 0.00 46 1007.8
20260505150119 22 0.0 0.0 0.00 0.00 0.00 44 1007.7
20260505140104 24 0.0 0.0 0.00 0.00 0.00 37 1008.0
20260505124036 24 38 0.0 1.6 0.00 0.00 0.00 39 1008.4
20260505123112 25 74 1.6 3.2 0.00 0.00 0.00 38 1008.4
20260505122031 25 26 0.0 1.6 0.00 0.00 0.00 39 1008.5
20260505121056 25 0.0 0.0 0.00 0.00 0.00 38 1008.7
20260505120120 24 29 0.0 1.6 0.00 0.00 0.00 39 1008.8
20260505115038 24 0.0 0.0 0.00 0.00 0.00 39 1008.8
20260505114119 26 28 0.0 1.6 0.00 0.00 0.00 37 1008.9
20260505113038 26 37 0.0 1.6 0.00 0.00 0.00 36 1009.0
20260505112119 25 0.0 0.0 0.00 0.00 0.00 37 1009.1
20260505111040 24 46 0.0 3.2 0.00 0.00 0.00 40 1009.5